2017-008AW

Last updated on Fri Mar 10 2017 00:15:03 GMT+0000 (Coordinated Universal Time)

1 41992U 17008AW 17068.75874082 .00003724 00000-0 16689-3 0 9993 2 41992 97.5086 130.3510 0007936 173.9448 186.1863 15.21844909 2734

Satellite not in orbit

2017-008AW